Location: Wapato
(46.4478°N, 120.4212°W)
Time: 10:07:07
(UTC+00:00)

Injun/Solrad 3 - Pass Details

Date: 17 May 2026
Orbit: 867 x 989 km, 66.8° (Epoch: 10 June)

Event Time Altitude Azimuth Distance (km) Brightness Sun altitude
Rises 05:48:31 0° 327° (NNW) 3,663 12.8 -18.0°
Reaches altitude 10° 05:51:42 10° 342° (NNW) 2,730 11.5 -18.3°
Maximum altitude 05:56:39 23° 33° (NNE) 1,974 9.9 -18.7°
Drops below altitude 10° 06:01:37 10° 84° (E) 2,750 10.1 -19.1°
Enters shadow 06:02:58 - 91° (E) 3,129 10.4 -19.3°
Sets 06:04:49 0° 98° (E) 3,696 - -19.4°
